Regional Weather Roundup
Issued by NWS Wakefield, VA

Home | Current Version | Previous Version | Text Only | Print | Product List | Glossary Off
Versions: 1 2 3 4 5 6 7 8 9 10 11 12 13 14 15 16 17 18 19 20 21 22 23 24 25 26 27 28 29 30 31 32 33 34 35 36 37 38 39 40 41 42 43 44 45 46 47 48 49 50

821
ASUS41 KAKQ 221115
RWRAKQ

REGIONAL WEATHER ROUNDUP
NATIONAL WEATHER SERVICE WAKEFIELD VA
700 AM EDT TUE AUG 22 2017

Note: "fair" indicates few or no clouds below 12,000 feet with no
significant weather and/or obstructions to visibility. * = Denotes
station may not report precipitation (e.g., rain,snow,etc.),
thunder or fog.

VAZ042-051-052>054-056-221200-
NORTHERN VIRGINIA

CITY           SKY/WX    TMP DP  RH WIND       PRES   REMARKS
WASH NATIONAL  PTCLDY    76  74  93 SW3       30.05S
DULLES         PTCLDY    71  71 100 S5        30.06R
FORT BELVOIR   CLEAR     74  72  91 CALM      30.05S
QUANTICO       PTCLDY    76  73  91 VRB6      30.06S
FREDERICKSBRG* CLEAR     73  73 100 CALM      30.06R
STAFFORD*      CLEAR     71  71 100 S3        30.10S FOG
WARRENTON      FOG       66  64  91 CALM      30.06R VSB<1/4
CULPEPER*      PTCLDY    66  66 100 CALM      30.07S FOG
MANASSAS*      FOG       68  68 100 CALM      30.06S VSB 1/4
LEESBURG*      PTCLDY    70  70 100 CALM      30.06S
WINCHESTER     CLEAR     68  66  94 S6        30.06R
FRONT ROYAL*   SUNNY     70  70 100 S5        30.06R
LURAY*         SUNNY     66  66 100 CALM      30.09S FOG
$$

VAZ048-049-060>072-079>083-221200-
CENTRAL AND SOUTH CENTRAL VIRGINIA

CITY           SKY/WX    TMP DP  RH WIND       PRES   REMARKS
RICHMOND       PTCLDY    73  72  96 S3        30.09R
CHESTERFIELD*  FAIR      72  71  97 S3        30.10R
PETERSBURG*    CLEAR     70  70 100 CALM      30.11R FOG
HANOVER        CLEAR     73  70  90 MISG      30.10R
TAPPAHANNOCK*  CLEAR    N/A N/A N/A S6        30.09S
QUINTON*       FAIR     N/A N/A N/A CALM      30.09S
CHARLOTTSVILLE MOCLDY    72  70  93 CALM      30.08R
GORDONSVILLE*  SUNNY     69  69 100 CALM      30.08R FOG
ORANGE*        CLEAR     70  68  94 CALM      30.08R FOG
LOUISA*        CLEAR     70  68  94 CALM      30.08R FOG
BUMPASS*       FAIR      71  71 100 SW7       30.08R
FARMVILLE*     CLEAR     71  69  95 CALM      30.09R FOG
CREWE*         FAIR      70  66  86 CALM      30.10R
FORT PICKETT*  FAIR     N/A N/A N/A S6        30.11R
CHASE CITY*    FAIR      70  70  99 CALM      30.12R
CLARKSVILLE*   FAIR      70  70 100 CALM      30.11R
SOUTH HILL*    PTCLDY    70  70 100 SW3       30.17R
LAWRENCEVILLE* FAIR      72  71  97 CALM      30.11R
EMPORIA*         N/A     70  70 100 CALM      30.13R
$$

VAZ088>098-221200-
SOUTHEAST VIRGINIA

CITY           SKY/WX    TMP DP  RH WIND       PRES   REMARKS
NORFOLK        CLEAR     76  75  97 S6        30.11R
VIRGINIA BEACH FOG       75  73  93 SW6       30.11R VSB 1
NORFOLK NAVAL  PTCLDY    76  73  91 S3        30.12S
WEST POINT*    CLEAR     76  73  91 S5        30.11S
SALUDA*        FAIR      75  75 100 S3        30.09S
NEWPORT NEWS   PTCLDY    75  73  93 S5        30.11R
LANGLEY AFB    MOCLDY    76  75  97 S7        30.10S
FORT EUSTIS    PTCLDY    76  73  92 S3        30.09R
WILLIAMSBURG*  CLEAR     77  75  94 CALM      30.11S
HR EXEC AP*    FAIR      73  70  88 S3        30.10R
FRANKLIN*      PTCLDY    72  71  97 S3        30.12R FOG
US460-WAKEFLD  CLEAR     73  73 100 CALM      30.11R FOG
$$

VAZ020-022-025-037-045-221200-
WEST CENTRAL AND SOUTHWEST VIRGINIA

CITY           SKY/WX    TMP DP  RH WIND       PRES   REMARKS
STAUNTON*      PTCLDY    64  63  97 CALM      30.13S FOG
WAYNESBORO*    PTSUNNY   67  67 100 CALM      30.12S
HOT SPRINGS VA CLOUDY    68  61  77 W3        30.25S
LYNCHBURG      CLEAR     68  67  96 SW5       30.12R
DANVILLE       CLEAR     68  68 100 SW3       30.12R
SOUTH BOSTON*  FAIR      68  66  95 CALM      30.11R
MARTINSVILLE   CLEAR     64  63  98 CALM      30.15R FOG
ROANOKE        PTCLDY    70  69  97 CALM      30.15R
BLACKSBURG     MOCLDY    65  65 100 CALM      30.21R FOG
DUBLIN*        FOG       65  65 100 CALM      30.19S VSB<1/4
MARION*        CLEAR     63  49  61 CALM      30.23R HAZE
HILLSVILLE*    PTCLDY    67  63  86 CALM      30.21R
RICHLANDS*     FAIR      67  60  76 CALM      30.21S
WISE*          CLEAR     68  68 100 SW5       30.22R
ABINGDON*      CLEAR     68  68 100 E3        30.19R FOG
$$

MDZ021>025-VAZ099-100-221200-
SOUTHERN MARYLAND AND THE DELMARVA PENINSULA

CITY           SKY/WX    TMP DP  RH WIND       PRES   REMARKS
PATUXENT RIVER PTCLDY    76  74  93 SW12      30.06S
BAY BRIDGE APT CLEAR     77  73  88 SW7       30.05S
LEONARDTOWN    CLEAR     73  72  94 S5        30.09R
DOVER          PTCLDY    75  75 100 S10       30.04S
GEORGETOWN     CLOUDY    78  75  90 S8        30.08S FOG
EASTON         NOT AVBL
CAMBRIDGE      CLEAR     75  73  94 S3        30.06S
SALISBURY      CLEAR     76  76 100 S7        30.08S FOG
OCEAN CITY     CLEAR     79  76  90 SW9       30.09S
WALLOPS ISLAND CLEAR     76  76 100 SW8       30.10S
ACCOMACK*      CLEAR     76  75  97 S7        30.10S
$$

NCZ012>017-030>032-221200-
NORTH CENTRAL AND EASTERN NORTH CAROLINA

CITY           SKY/WX    TMP DP  RH WIND       PRES   REMARKS
ROANOKE RAPIDS PTSUNNY   70  70 100 S3        30.12R FOG
RALEIGH        PTCLDY    74  73  97 SW3       30.13R FOG
ELIZABETH CITY CLEAR     74  74 100 S5        30.12S FOG
AHOSKIE*       FOG       71  71  99 CALM      30.12R VSB 1/4
EDENTON*       MOCLDY    78  76  92 CALM      30.13R
CURRITUCK*     CLEAR     74  73  98 CALM      30.13R FOG
KILL DEVIL HLS CLEAR     77  74  91 CALM      30.11S
MANTEO         PTCLDY    78  75  90 W6        30.13R
CAPE HATTERAS  CLEAR     77  76  96 S3        30.12S
TARBORO*       NOT AVBL
GOLDSBORO      FOG       73  73 100 CALM      30.11S VSB 1/2
WASHINGTON     PTCLDY    74  73  98 CALM      30.13R FOG
GREENVILLE     CLOUDY    75  75 100 CALM      30.14R FOG
NEW BERN       CLEAR     73  73 100 CALM      30.13S FOG
WILMINGTON     CLEAR     75  74  96 CALM      30.11S
$$

VAZ048-221200-
ELSEWHERE

CITY           SKY/WX    TMP DP  RH WIND       PRES   REMARKS
HARRISBURG PA  MOCLDY    71  70  96 CALM      30.03S FOG
BALTIMORE      PTCLDY    71  71 100 CALM      30.04S FOG
ANNAPOLIS      NOT AVBL
ANDREWS AFB    CLEAR     74  71  89 SW7       30.05R
PHILADELPHIA   CLOUDY    76  74  93 S7        30.05S FOG
HENDERSON NC   CLEAR     68  67  98 CALM      30.12S FOG
GREENSBORO     PTCLDY    69  69 100 S6        30.12R FOG
ROCKY MOUNT    FOG       73  73 100 CALM      30.12R VSB 1/4
$$

VAZ100-221200-
MARINE

STATION/POSITION TIME  TEMP    WIND        PRES    WAVE   SWELL
                       AIR SEA DIR/SP/G            HT/PER HT/PER
                 (UTC) (F)     (DEG/KT/KT) (MB)    (FT/S) (FT/S)
BRANDYWINE LGT   1036   77     210/ 15/ 16 1018.4S
CAPE MAY NJ      1036   77 77  190/  5/  7 1017.8R
LEWES DE         1036   77 76  220/  6/  7 1018.0S
15NM E FENWICK I 1050   79 78  200/ 14/ 17 1019.0F   3/ 4   2/ 7
OCEAN-CITY-INLET 1036   77 80  210/ 11/ 13 1019.1S
WACHAPREAGUE VA  1036   78 82  230/  5/  8 1019.3S
THOMAS POINT MD  1100   78 80  230/  7/  9   N/A
GOOSES REEF MD   1100   79 80  210/ 12/ 14 1018.4    1/ 2
COVE POINT MD    1036   77     230/ 12/ 16 1018.5R
SOLOMONS ISLAND  1036   78 82  220/ 10/ 12   N/A
BISHOPS HEAD MD  1036   79 81  210/ 11/ 12 1018.6R
PINEY POINT MD   1048          230/ 11/ 12   N/A
POTOMAC MD       1100   78 82  240/ 14/ 16 1017.6    1/ 3
CAMBRIDGE MD     1036   77 82              1018.7S
LEWISETTA VA     1036   77 83  240/ 10/ 13 1018.2S
RAPPAHANNOCK LGT 1042          190/ 13/ 14 1019.7R
STINGRAY PT      1100   79 82  240/ 10/ 12 1019.4    1/ 2
YORK RVR RNG VA  1036   78     210/ 10/ 12 1019.5R
YORKTOWN VA      1036   77 83  220/  5/  8 1018.8R
JAMESTOWN VA     1100      85  190/  6/  8   N/A     0
DOMINION TERM VA 1036   77     190/  7/  9 1019.5S
KIPTOPEKE VA     1042      81  210/  8/ 11   N/A
CHES BAY BRIDGE  1042   77 81  220/ 10/ 11 1019.4R
CAPE HENRY VA    1042   76     180/  5/  7   N/A
WILLOUBY STN VA  1042   77     210/  9/ 10 1019.5R
S CRANEY ISL VA  1042   76     190/  5/  8 1019.3S
CAPE HENRY BUOY  1030      80                N/A     2/ 9
1ST LANDING BUOY 1100   78 81              1019.4    1/ 3
64NM E OF VA BCH 1050   79 79  190/  8/  8 1020.4R   2/ 9   2/ 9
DUCK PIER NC     1042   79 76  210/  6/  9 1019.6R
44100 DUCK FRF   1005      81                N/A     2/ 9   2/13
44056 DUCK FRF   1030      80                N/A     2/ 8   2/13
OREGON INLET NC  1042   80 80  170/  6/  8 1019.8R
HATTERAS NC      1042   80 82  150/  4/  5 1019.9R
DIAMOND SHLS NC  1050   81 86  320/  4/  6 1019.9R   3/ 9   3/ 9
CAPE LOOKOUT NC  1100   81      CALM  /  1 1019.6R
$$




USA.gov is the U.S. government's official web portal to all federal, state and local government web resources and services.